SILO ALERT LOG


Silo ID Alert Type Alert Message Silo Type Points Depth (mm) Strength Temperature (°C) Humidity (%) Height (mm) Volume (㎥) Weight (t) Flag Time
DJSAD01 Humidity 습도센서 측정값이 80% 초과 440 1507 7278 1 88.4 7272 301.044 190.32 0 2024-01-10 11:39:40.000
DJDJD03 Humidity 습도센서 측정값이 80% 초과 62 4642 5218 2.1 80.6 3037 367.951 232.618 0 2024-01-10 11:39:39.000
DJSAD02 Humidity 습도센서 측정값이 80% 초과 388 1127 4276 1.8 87.6 7652 316.791 200.275 11 2024-01-10 11:39:39.000
DJSAD03 Humidity 습도센서 측정값이 80% 초과 442 1756 6212 2.1 84.5 7023 290.727 183.798 0 2024-01-10 11:39:39.000
DJSAD05 Humidity 습도센서 측정값이 80% 초과 497 888 15164 1.2 80.6 7891 326.662 206.515 11 2024-01-10 11:39:38.000
DJSSD04 Temperature 온도센서 상태 이상 0 8200 0 -999 -999 -120 -16.702 0 31 2024-01-10 11:39:33.000
DJHNR01 Humidity 습도센서 측정값이 80% 초과 호퍼 471 4300 5056 4 99.9 11079 473.413 299.292 13 2024-01-10 11:39:33.000
DJSAD12 Humidity 습도센서 측정값이 80% 초과 0 7700 0 2.5 86.9 -120 -17.075 0 31 2024-01-10 11:39:33.000
DJSSD05 Temperature 온도센서 측정값이 0도 미만 848 2557 4886 -45.4 43.6 5522 768.673 485.955 0 2024-01-10 11:39:33.000
DJSAD08 Humidity 습도센서 측정값이 80% 초과 593 2542 4912 6.8 85.4 5037 716.74 453.123 12 2024-01-10 11:39:33.000
DJHNR11 Temperature 온도센서 측정값이 0도 미만 호퍼 123 2080 2525 -0.7 75.7 8299 125.061 79.064 11 2024-01-10 11:39:32.000
DJDJD01 Humidity 습도센서 측정값이 80% 초과 89 9223 3926 1.1 80.4 -1543 -186.983 0 0 2024-01-10 11:39:31.000
DJSAD11 Humidity 습도센서 측정값이 80% 초과 294 1489 13156 1.3 80.4 6090 866.601 547.865 11 2024-01-10 11:39:31.000
DJSSD09 Temperature 온도센서 측정값이 0도 미만 122 2907 3532 -45.4 0 4772 664.192 419.902 11 2024-01-10 11:39:31.000
DJSAD16 Humidity 습도센서 측정값이 80% 초과 86 6323 3387 3.6 80.6 1256 125.094 79.084 11 2024-01-10 11:39:31.000
DJSAD07 Humidity 습도센서 측정값이 80% 초과 191 2620 3178 3.2 86.2 4959 705.645 446.109 11 2024-01-10 11:39:31.000
DJDJD04 Humidity 습도센서 측정값이 80% 초과 280 4205 4469 3.1 81.6 3474 420.912 266.101 11 2024-01-10 11:39:31.000
DJSAD17 Humidity 습도센서 측정값이 80% 초과 442 3142 4738 3.4 80.6 4437 441.832 279.326 0 2024-01-10 11:39:30.000
DJHNR04 Humidity 습도센서 측정값이 80% 초과 호퍼 174 915 5951 2.2 80.4 14464 670.609 423.959 29 2024-01-10 11:39:30.000
DJSAD18 Humidity 습도센서 측정값이 80% 초과 116 1415 5783 4 80.8 6164 613.839 388.069 11 2024-01-10 11:39:30.000

[첫 페이지] [10019] [10020] [10021] [10022] 10023 [10024] [10025] [10026] [10027] [마지막 페이지]